• In Austria
  • List of Countries
  • For 7 days
  • Water Temperature
  • Satellite Maps
  • Weather Map
  • News
  • Weather Widgets
  • user-avatar
    Login

    Hourly Weather Wiktoria

    Today, 13 December, Wednesday

    Time Temperature Precipitation Wind Pressure Humidity
    00:00 +22°C° 0 mm 1 mps 747 mmHg 43%
    01:00 +20°C° 0 mm 2 mps 747 mmHg 46%
    02:00 +20°C° 0 mm 2 mps 747 mmHg 47%
    03:00 +19°C° 0 mm 2 mps 747 mmHg 49%
    04:00 +19°C° 0 mm 2 mps 746 mmHg 49%
    05:00 +20°C° 0 mm 3 mps 746 mmHg 48%
    06:00 +22°C° 0 mm 3 mps 747 mmHg 48%
    07:00 +24°C° 0 mm 3 mps 747 mmHg 47%
    08:00 +27°C° 0 mm 4 mps 747 mmHg 41%
    09:00 +30°C° 0 mm 4 mps 746 mmHg 34%
    10:00 +34°C° 0 mm 4 mps 746 mmHg 28%
    11:00 +35°C° 0 mm 4 mps 746 mmHg 23%
    12:00 +37°C° 0 mm 4 mps 745 mmHg 19%
    13:00 +38°C° 0 mm 4 mps 745 mmHg 15%
    14:00 +38°C° 0 mm 4 mps 744 mmHg 14%
    15:00 +40°C° 0 mm 4 mps 743 mmHg 13%
    16:00 +40°C° 0 mm 4 mps 742 mmHg 13%
    17:00 +37°C° 0 mm 3 mps 742 mmHg 16%
    18:00 +35°C° 0 mm 3 mps 742 mmHg 20%
    19:00 +33°C° 0 mm 3 mps 741 mmHg 24%
    20:00 +32°C° 0 mm 4 mps 741 mmHg 23%
    21:00 +30°C° 0 mm 4 mps 741 mmHg 23%
    22:00 +28°C° 0 mm 5 mps 741 mmHg 22%
    23:00 +28°C° 0 mm 4 mps 741 mmHg 24%

    Tomorrow, 14 December, Thursday

    Time Temperature Precipitation Wind Pressure Humidity
    00:00 +27°C° 0 mm 3 mps 741 mmHg 25%
    01:00 +27°C° 0 mm 3 mps 741 mmHg 26%
    02:00 +26°C° 0 mm 3 mps 740 mmHg 29%
    03:00 +25°C° 0 mm 3 mps 740 mmHg 31%
    04:00 +25°C° 0 mm 3 mps 740 mmHg 33%
    05:00 +25°C° 0 mm 3 mps 740 mmHg 35%
    06:00 +26°C° 0 mm 3 mps 741 mmHg 36%
    07:00 +27°C° 0 mm 2 mps 741 mmHg 37%
    08:00 +29°C° 0 mm 3 mps 742 mmHg 34%
    09:00 +30°C° 0 mm 3 mps 742 mmHg 32%
    10:00 +33°C° 0 mm 4 mps 743 mmHg 29%
    11:00 +34°C° 0 mm 4 mps 743 mmHg 29%
    12:00 +35°C° 0 mm 5 mps 743 mmHg 29%
    13:00 +36°C° 0 mm 6 mps 743 mmHg 30%
    14:00 +35°C° 0 mm 6 mps 743 mmHg 30%
    15:00 +35°C° 0 mm 6 mps 742 mmHg 30%
    16:00 +35°C° 0 mm 6 mps 742 mmHg 30%
    17:00 +33°C° 0 mm 6 mps 743 mmHg 38%
    18:00 +29°C° 0 mm 6 mps 743 mmHg 46%
    19:00 +26°C° 0 mm 6 mps 744 mmHg 54%
    20:00 +24°C° 0 mm 6 mps 744 mmHg 56%
    21:00 +22°C° 0 mm 5 mps 745 mmHg 59%
    22:00 +20°C° 0 mm 5 mps 746 mmHg 61%
    23:00 +19°C° 0 mm 5 mps 746 mmHg 63%

    Day after tomorrow, 15 December, Friday

    Time Temperature Precipitation Wind Pressure Humidity
    00:00 +17°C° 0 mm 5 mps 746 mmHg 65%
    01:00 +16°C° 0 mm 5 mps 746 mmHg 67%
    02:00 +17°C° 0 mm 4 mps 746 mmHg 68%
    03:00 +15°C° 0 mm 4 mps 746 mmHg 69%
    04:00 +16°C° 0 mm 3 mps 746 mmHg 70%
    05:00 +17°C° 0 mm 3 mps 746 mmHg 67%
    06:00 +18°C° 0 mm 3 mps 746 mmHg 65%
    07:00 +19°C° 0 mm 3 mps 747 mmHg 62%
    08:00 +21°C° 0 mm 2 mps 747 mmHg 54%
    09:00 +25°C° 0 mm 2 mps 746 mmHg 46%
    10:00 +28°C° 0 mm 2 mps 746 mmHg 39%
    11:00 +29°C° 0 mm 2 mps 746 mmHg 34%
    12:00 +31°C° 0 mm 3 mps 746 mmHg 29%
    13:00 +33°C° 0 mm 4 mps 745 mmHg 23%
    14:00 +33°C° 0 mm 4 mps 745 mmHg 23%
    15:00 +34°C° 0 mm 4 mps 744 mmHg 22%
    16:00 +34°C° 0 mm 4 mps 744 mmHg 21%
    17:00 +33°C° 0 mm 3 mps 744 mmHg 24%
    18:00 +30°C° 0 mm 3 mps 745 mmHg 27%
    19:00 +29°C° 0 mm 2 mps 745 mmHg 31%
    20:00 +27°C° 0 mm 2 mps 745 mmHg 32%
    21:00 +25°C° 0 mm 2 mps 746 mmHg 33%
    22:00 +22°C° 0 mm 3 mps 747 mmHg 34%
    23:00 +21°C° 0 mm 3 mps 746 mmHg 41%

    16 December, Saturday

    Time Temperature Precipitation Wind Pressure Humidity
    00:00 +20°C° 0 mm 3 mps 746 mmHg 47%
    01:00 +19°C° 0 mm 3 mps 746 mmHg 54%
    02:00 +19°C° 0 mm 3 mps 746 mmHg 57%
    03:00 +18°C° 0 mm 2 mps 747 mmHg 60%
    04:00 +18°C° 0 mm 2 mps 747 mmHg 62%
    05:00 +19°C° 0 mm 2 mps 747 mmHg 60%
    06:00 +20°C° 0 mm 2 mps 748 mmHg 57%
    07:00 +21°C° 0 mm 2 mps 748 mmHg 55%
    08:00 +25°C° 0 mm 2 mps 748 mmHg 45%
    09:00 +28°C° 0 mm 1 mps 748 mmHg 35%
    10:00 +31°C° 0 mm 1 mps 749 mmHg 26%
    11:00 +32°C° 0 mm 1 mps 748 mmHg 24%
    12:00 +34°C° 0 mm 2 mps 748 mmHg 22%
    13:00 +35°C° 0 mm 3 mps 747 mmHg 20%
    14:00 +35°C° 0 mm 3 mps 747 mmHg 20%
    15:00 +36°C° 0 mm 3 mps 747 mmHg 20%
    16:00 +36°C° 0 mm 3 mps 746 mmHg 19%
    17:00 +34°C° 0 mm 3 mps 747 mmHg 23%
    18:00 +33°C° 0 mm 3 mps 747 mmHg 27%
    19:00 +30°C° 0 mm 2 mps 747 mmHg 31%
    20:00 +28°C° 0 mm 3 mps 748 mmHg 37%
    21:00 +26°C° 0 mm 4 mps 748 mmHg 44%
    22:00 +23°C° 0 mm 5 mps 749 mmHg 50%
    23:00 +22°C° 0 mm 5 mps 749 mmHg 55%

    17 December, Sunday

    Time Temperature Precipitation Wind Pressure Humidity
    00:00 +21°C° 0 mm 4 mps 748 mmHg 60%
    01:00 +20°C° 0 mm 4 mps 748 mmHg 65%
    02:00 +19°C° 0 mm 3 mps 748 mmHg 68%
    03:00 +19°C° 0 mm 3 mps 748 mmHg 71%
    04:00 +18°C° 0 mm 3 mps 748 mmHg 74%
    05:00 +19°C° 0 mm 3 mps 748 mmHg 70%
    06:00 +20°C° 0 mm 3 mps 748 mmHg 67%
    07:00 +21°C° 0 mm 3 mps 749 mmHg 63%
    08:00 +25°C° 0 mm 2 mps 749 mmHg 53%
    09:00 +28°C° 0 mm 2 mps 748 mmHg 43%
    10:00 +31°C° 0 mm 1 mps 748 mmHg 34%
    11:00 +34°C° 0 mm 2 mps 748 mmHg 29%
    12:00 +35°C° 0 mm 2 mps 748 mmHg 24%
    13:00 +37°C° 0 mm 2 mps 747 mmHg 19%
    14:00 +37°C° 0 mm 2 mps 747 mmHg 19%
    15:00 +37°C° 0 mm 3 mps 746 mmHg 18%
    16:00 +37°C° 0 mm 3 mps 746 mmHg 17%
    17:00 +35°C° 0 mm 3 mps 746 mmHg 23%
    18:00 +34°C° 0 mm 4 mps 747 mmHg 28%
    19:00 +32°C° 0 mm 4 mps 747 mmHg 33%
    20:00 +29°C° 0 mm 4 mps 747 mmHg 40%
    21:00 +27°C° 0 mm 4 mps 747 mmHg 46%
    22:00 +26°C° 0 mm 4 mps 748 mmHg 52%
    23:00 +25°C° 0 mm 4 mps 747 mmHg 57%

    18 December, Monday

    Time Temperature Precipitation Wind Pressure Humidity
    00:00 +24°C° 0 mm 3 mps 747 mmHg 61%
    01:00 +23°C° 0 mm 2 mps 746 mmHg 65%
    02:00 +23°C° 0 mm 2 mps 746 mmHg 66%
    03:00 +21°C° 0 mm 2 mps 746 mmHg 66%
    04:00 +21°C° 0 mm 2 mps 746 mmHg 67%
    05:00 +22°C° 0 mm 3 mps 746 mmHg 64%
    06:00 +25°C° 0 mm 3 mps 746 mmHg 62%
    07:00 +26°C° 0 mm 3 mps 746 mmHg 59%
    08:00 +29°C° 0 mm 3 mps 746 mmHg 51%
    09:00 +33°C° 0 mm 3 mps 746 mmHg 43%
    10:00 +36°C° 0 mm 3 mps 746 mmHg 35%
    11:00 +38°C° 0 mm 3 mps 745 mmHg 30%
    12:00 +39°C° 0 mm 3 mps 744 mmHg 24%
    13:00 +42°C° 0 mm 3 mps 744 mmHg 18%
    14:00 +41°C° 0 mm 2 mps 743 mmHg 18%
    15:00 +41°C° 0 mm 2 mps 742 mmHg 17%
    16:00 +42°C° 0 mm 1 mps 742 mmHg 17%
    17:00 +40°C° 0 mm 2 mps 742 mmHg 20%
    18:00 +38°C° 0 mm 3 mps 742 mmHg 24%
    19:00 +36°C° 0 mm 3 mps 742 mmHg 27%
    20:00 +35°C° 0 mm 3 mps 742 mmHg 29%
    21:00 +33°C° 0 mm 4 mps 742 mmHg 31%
    22:00 +32°C° 0 mm 4 mps 742 mmHg 33%
    23:00 +32°C° 0 mm 4 mps 741 mmHg 33%
    Show more